| time (UTC) | temp F | wind direction | speed MPH | gust MPH | rain 1hr in | rain 24hr in | rain mn in | humidity % | barometer mb |
| 20260905015832 | 72 | 91 | 0.0 | 1.0 | 0.00 | 0.34 | 0.34 | 99 | 1015.8 |
| 20260905015331 | 72 | 67 | 0.0 | 2.0 | 0.00 | 0.34 | 0.34 | 99 | 1015.5 |
| 20260905014831 | 72 | 159 | 0.0 | 2.0 | 0.00 | 0.34 | 0.34 | 99 | 1015.7 |
| 20260905014326 | 72 | 109 | 0.0 | 1.0 | 0.00 | 0.34 | 0.34 | 99 | 1015.5 |
| 20260905013821 | 72 | 119 | 0.0 | 2.0 | 0.00 | 0.34 | 0.34 | 99 | 1015.2 |
| 20260905013318 | 72 | 78 | 0.0 | 1.0 | 0.00 | 0.34 | 0.34 | 99 | 1015.3 |
| 20260905012813 | 72 | 88 | 0.0 | 1.0 | 0.00 | 0.34 | 0.34 | 99 | 1015.0 |
| 20260905012308 | 72 | 41 | 0.0 | 2.0 | 0.00 | 0.34 | 0.34 | 99 | 1015.1 |
| 20260905011805 | 72 | 92 | 0.0 | 2.0 | 0.00 | 0.34 | 0.34 | 99 | 1014.8 |
| 20260905011301 | 72 | 71 | 0.0 | 1.0 | 0.00 | 0.34 | 0.34 | 98 | 1014.8 |
| 20260905010801 | 72 | 116 | 0.0 | 1.0 | 0.00 | 0.34 | 0.34 | 98 | 1014.8 |
| 20260905010255 | 72 | 124 | 0.0 | 1.0 | 0.00 | 0.34 | 0.34 | 98 | 1014.6 |
| 20260905005752 | 73 | 184 | 2.0 | 2.0 | 0.00 | 0.34 | 0.34 | 98 | 1014.5 |
| 20260905005253 | 73 | 184 | 0.0 | 3.0 | 0.00 | 0.34 | 0.34 | 98 | 1014.6 |
| 20260905004752 | 73 | 138 | 0.0 | 2.0 | 0.00 | 0.34 | 0.34 | 98 | 1014.5 |
| 20260905004247 | 73 | 156 | 0.0 | 2.0 | 0.00 | 0.34 | 0.34 | 98 | 1014.4 |
| 20260905003742 | 73 | 148 | 0.0 | 2.0 | 0.00 | 0.34 | 0.34 | 98 | 1014.3 |
| 20260905003238 | 73 | 174 | 0.0 | 2.0 | 0.00 | 0.34 | 0.34 | 98 | 1014.1 |
| 20260905002733 | 73 | 59 | 1.0 | 2.0 | 0.00 | 0.34 | 0.34 | 98 | 1013.8 |
| 20260905002228 | 73 | 198 | 1.0 | 3.0 | 0.00 | 0.34 | 0.34 | 98 | 1014.4 |
| 20260905001723 | 73 | 224 | 2.0 | 3.0 | 0.00 | 0.34 | 0.34 | 98 | 1014.0 |
| 20260905001222 | 73 | 199 | 1.0 | 3.0 | 0.00 | 0.34 | 0.34 | 98 | 1013.9 |
| 20260905000718 | 73 | 236 | 1.0 | 2.0 | 0.00 | 0.34 | 0.34 | 98 | 1013.6 |
| 20260905000213 | 73 | 76 | 0.0 | 1.0 | 0.00 | 0.34 | 0.34 | 98 | 1013.6 |
| 20260904235708 | 73 | 169 | 2.0 | 3.0 | 0.00 | 0.34 | 0.34 | 98 | 1013.8 |
| 20260904235203 | 73 | 204 | 1.0 | 2.0 | 0.00 | 0.34 | 0.34 | 98 | 1014.0 |
| 20260904234657 | 73 | 205 | 1.0 | 2.0 | 0.00 | 0.34 | 0.34 | 98 | 1014.0 |
| 20260904234153 | 73 | 135 | 3.0 | 3.0 | 0.00 | 0.34 | 0.34 | 98 | 1013.9 |
| 20260904233648 | 73 | 169 | 1.0 | 1.0 | 0.00 | 0.34 | 0.34 | 98 | 1013.5 |
| 20260904233144 | 73 | 51 | 1.0 | 2.0 | 0.00 | 0.34 | 0.34 | 97 | 1014.1 |
| 20260904232641 | 73 | 60 | 2.0 | 2.0 | 0.00 | 0.34 | 0.34 | 97 | 1014.6 |
| 20260904232137 | 73 | 42 | 2.0 | 2.0 | 0.00 | 0.34 | 0.34 | 97 | 1014.8 |
| 20260904231632 | 73 | 37 | 1.0 | 2.0 | 0.02 | 0.34 | 0.34 | 97 | 1014.9 |
| 20260904231127 | 73 | 87 | 2.0 | 2.0 | 0.02 | 0.34 | 0.34 | 97 | 1015.5 |
| 20260904230626 | 73 | 78 | 1.0 | 3.0 | 0.00 | 0.34 | 0.34 | 96 | 1015.9 |
| 20260904230122 | 73 | 207 | 2.0 | 5.0 | 0.05 | 0.34 | 0.34 | 95 | 1016.0 |
| 20260904225619 | 73 | 68 | 0.0 | 1.0 | 0.31 | 0.34 | 0.34 | 94 | 1015.3 |
| 20260904225114 | 74 | 44 | 1.0 | 3.0 | 0.31 | 0.33 | 0.33 | 94 | 1015.2 |
| 20260904224609 | 74 | 179 | 0.0 | 3.0 | 0.02 | 0.28 | 0.28 | 95 | 1015.0 |
| 20260904224104 | 74 | 193 | 3.0 | 3.0 | 0.00 | 0.28 | 0.28 | 95 | 1015.2 |
| 20260904223603 | 74 | 121 | 1.0 | 3.0 | 0.00 | 0.28 | 0.28 | 94 | 1015.5 |
| 20260904223059 | 74 | 48 | 0.0 | 3.0 | 0.00 | 0.28 | 0.28 | 94 | 1015.5 |
| 20260904222554 | 74 | 88 | 3.0 | 6.0 | 0.00 | 0.28 | 0.28 | 96 | 1015.8 |
| 20260904222050 | 74 | 228 | 2.0 | 3.0 | 0.00 | 0.28 | 0.28 | 96 | 1016.0 |
| 20260904221549 | 74 | 172 | 3.0 | 4.0 | 0.00 | 0.28 | 0.28 | 96 | 1016.0 |
| 20260904221044 | 74 | 177 | 0.0 | 1.0 | 0.00 | 0.28 | 0.28 | 95 | 1015.8 |
| 20260904220544 | 74 | 186 | 1.0 | 3.0 | 0.00 | 0.28 | 0.28 | 95 | 1016.1 |
| 20260904220040 | 74 | 154 | 2.0 | 3.0 | 0.14 | 0.28 | 0.28 | 94 | 1015.7 |
| 20260904215540 | 74 | 182 | 2.0 | 3.0 | 1.18 | 0.27 | 0.27 | 93 | 1016.0 |
| 20260904215036 | 75 | 279 | 3.0 | 3.0 | 1.28 | 0.22 | 0.22 | 89 | 1015.8 |
| 20260904214531 | 78 | 148 | 1.0 | 5.0 | 0.28 | 0.05 | 0.05 | 81 | 1015.9 |
| 20260904214027 | 79 | 158 | 7.0 | 9.0 | 0.00 | 0.00 | 0.00 | 71 | 1015.4 |
| 20260904213524 | 80 | 178 | 4.0 | 13.0 | 0.00 | 0.00 | 0.00 | 68 | 1014.6 |
| 20260904213022 | 81 | 306 | 5.0 | 23.0 | 0.00 | 0.00 | 0.00 | 67 | 1014.6 |
| 20260904212521 | 83 | 267 | 7.0 | 14.0 | 0.00 | 0.00 | 0.00 | 64 | 1014.2 |
| 20260904212016 | 85 | 280 | 5.0 | 12.0 | 0.00 | 0.00 | 0.00 | 64 | 1014.5 |
| 20260904211516 | 89 | 254 | 8.0 | 16.0 | 0.00 | 0.00 | 0.00 | 61 | 1014.3 |
| 20260904211012 | 92 | 228 | 4.0 | 7.0 | 0.00 | 0.00 | 0.00 | 64 | 1014.3 |
| 20260904210511 | 93 | 237 | 2.0 | 3.0 | 0.00 | 0.00 | 0.00 | 63 | 1013.3 |
| 20260904210007 | 93 | 254 | 0.0 | 1.0 | 0.00 | 0.00 | 0.00 | 61 | 1013.1 |
| 20260904205502 | 93 | 258 | 2.0 | 2.0 | 0.00 | 0.00 | 0.00 | 61 | 1013.5 |
| 20260904204959 | 93 | 253 | 0.0 | 0.0 | 0.00 | 0.00 | 0.00 | 58 | 1013.4 |
| 20260904204454 | 93 | 272 | 0.0 | 0.0 | 0.00 | 0.00 | 0.00 | 58 | 1013.3 |
| 20260904203950 | 93 | 285 | 0.0 | 2.0 | 0.00 | 0.00 | 0.00 | 56 | 1013.1 |
| 20260904203446 | 93 | 312 | 0.0 | 1.0 | 0.00 | 0.00 | 0.00 | 60 | 1013.0 |
| 20260904202942 | 93 | 321 | 0.0 | 2.0 | 0.00 | 0.00 | 0.00 | 60 | 1013.1 |
| 20260904202438 | 92 | 229 | 1.0 | 1.0 | 0.00 | 0.00 | 0.00 | 61 | 1013.0 |
| 20260904201934 | 91 | 323 | 0.0 | 0.0 | 0.00 | 0.00 | 0.00 | 62 | 1012.9 |
| 20260904201429 | 91 | 261 | 0.0 | 1.0 | 0.00 | 0.00 | 0.00 | 62 | 1013.0 |
| 20260904200924 | 92 | 150 | 0.0 | 1.0 | 0.00 | 0.00 | 0.00 | 61 | 1013.0 |
| 20260904200422 | 93 | 171 | 0.0 | 0.0 | 0.00 | 0.00 | 0.00 | 59 | 1013.2 |
| 20260904195918 | 93 | 272 | 0.0 | 1.0 | 0.00 | 0.00 | 0.00 | 57 | 1013.4 |
| 20260904195415 | 93 | 260 | 0.0 | 1.0 | 0.00 | 0.00 | 0.00 | 58 | 1013.5 |
| 20260904194910 | 93 | 247 | 0.0 | 1.0 | 0.00 | 0.00 | 0.00 | 58 | 1013.6 |
| 20260904194410 | 94 | 229 | 0.0 | 1.0 | 0.00 | 0.00 | 0.00 | 56 | 1013.8 |
| 20260904193905 | 95 | 254 | 0.0 | 1.0 | 0.00 | 0.00 | 0.00 | 55 | 1013.8 |
| 20260904193400 | 95 | 230 | 2.0 | 2.0 | 0.00 | 0.00 | 0.00 | 53 | 1013.6 |
| 20260904192855 | 96 | 330 | 2.0 | 2.0 | 0.00 | 0.00 | 0.00 | 50 | 1013.6 |
| 20260904192351 | 98 | 2 | 2.0 | 2.0 | 0.00 | 0.00 | 0.00 | 48 | 1013.7 |
| 20260904191847 | 98 | 239 | 1.0 | 5.0 | 0.00 | 0.00 | 0.00 | 47 | 1013.8 |
| 20260904191344 | 99 | 258 | 3.0 | 4.0 | 0.00 | 0.00 | 0.00 | 48 | 1013.8 |
| 20260904190840 | 98 | 245 | 2.0 | 4.0 | 0.00 | 0.00 | 0.00 | 49 | 1014.1 |
| 20260904190335 | 98 | 305 | 1.0 | 3.0 | 0.00 | 0.00 | 0.00 | 49 | 1013.9 |
| 20260904185832 | 98 | 163 | 4.0 | 4.0 | 0.00 | 0.00 | 0.00 | 49 | 1014.0 |
| 20260904185327 | 98 | 263 | 2.0 | 3.0 | 0.00 | 0.00 | 0.00 | 48 | 1014.3 |
| 20260904184826 | 96 | 262 | 2.0 | 3.0 | 0.00 | 0.00 | 0.00 | 50 | 1014.5 |
| 20260904184321 | 96 | 332 | 2.0 | 2.0 | 0.00 | 0.00 | 0.00 | 51 | 1014.6 |
| 20260904183817 | 96 | 283 | 1.0 | 2.0 | 0.00 | 0.00 | 0.00 | 51 | 1014.6 |
| 20260904183312 | 97 | 128 | 1.0 | 4.0 | 0.00 | 0.00 | 0.00 | 51 | 1014.7 |
| 20260904182807 | 97 | 167 | 1.0 | 3.0 | 0.00 | 0.00 | 0.00 | 50 | 1014.9 |
| 20260904182306 | 97 | 350 | 1.0 | 3.0 | 0.00 | 0.00 | 0.00 | 50 | 1014.8 |
| 20260904181758 | 96 | 244 | 2.0 | 6.0 | 0.00 | 0.00 | 0.00 | 52 | 1014.9 |
| 20260904181257 | 95 | 228 | 3.0 | 5.0 | 0.00 | 0.00 | 0.00 | 52 | 1014.9 |
| 20260904180753 | 95 | 211 | 5.0 | 6.0 | 0.00 | 0.00 | 0.00 | 52 | 1015.0 |
| 20260904180248 | 95 | 271 | 2.0 | 6.0 | 0.00 | 0.00 | 0.00 | 53 | 1015.1 |
| 20260904175747 | 95 | 211 | 4.0 | 5.0 | 0.00 | 0.00 | 0.00 | 53 | 1015.1 |
| 20260904175245 | 95 | 252 | 2.0 | 3.0 | 0.00 | 0.00 | 0.00 | 53 | 1015.2 |
| 20260904174741 | 95 | 199 | 2.0 | 4.0 | 0.00 | 0.00 | 0.00 | 52 | 1015.6 |
| 20260904174237 | 95 | 256 | 3.0 | 8.0 | 0.00 | 0.00 | 0.00 | 52 | 1015.4 |
| 20260904173733 | 95 | 225 | 1.0 | 6.0 | 0.00 | 0.00 | 0.00 | 52 | 1015.6 |
| 20260904173232 | 95 | 178 | 2.0 | 5.0 | 0.00 | 0.00 | 0.00 | 50 | 1015.6 |
| 20260904172729 | 95 | 238 | 3.0 | 5.0 | 0.00 | 0.00 | 0.00 | 50 | 1015.7 |
| 20260904172227 | 95 | 195 | 2.0 | 4.0 | 0.00 | 0.00 | 0.00 | 52 | 1015.8 |
| 20260904171717 | 94 | 298 | 4.0 | 5.0 | 0.00 | 0.00 | 0.00 | 51 | 1015.7 |
| 20260904171212 | 94 | 272 | 0.0 | 4.0 | 0.00 | 0.00 | 0.00 | 53 | 1015.7 |
| 20260904170709 | 94 | 234 | 2.0 | 3.0 | 0.00 | 0.00 | 0.00 | 54 | 1015.5 |
| 20260904170204 | 94 | 123 | 2.0 | 3.0 | 0.00 | 0.00 | 0.00 | 53 | 1015.7 |
| 20260904165703 | 94 | 230 | 3.0 | 3.0 | 0.00 | 0.00 | 0.00 | 53 | 1015.8 |
| 20260904165203 | 94 | 222 | 3.0 | 4.0 | 0.00 | 0.00 | 0.00 | 54 | 1015.7 |
| 20260904164657 | 93 | 129 | 2.0 | 3.0 | 0.00 | 0.00 | 0.00 | 54 | 1015.8 |
| 20260904164152 | 93 | 295 | 0.0 | 2.0 | 0.00 | 0.00 | 0.00 | 56 | 1015.6 |
| 20260904163649 | 93 | 210 | 3.0 | 4.0 | 0.00 | 0.00 | 0.00 | 53 | 1015.7 |
| 20260904163144 | 92 | 265 | 0.0 | 3.0 | 0.00 | 0.00 | 0.00 | 56 | 1015.7 |
| 20260904162643 | 92 | 169 | 2.0 | 4.0 | 0.00 | 0.00 | 0.00 | 56 | 1015.9 |
| 20260904162138 | 92 | 196 | 3.0 | 5.0 | 0.00 | 0.00 | 0.00 | 55 | 1015.9 |
| 20260904161633 | 92 | 255 | 1.0 | 4.0 | 0.00 | 0.00 | 0.00 | 55 | 1016.0 |
| 20260904161128 | 93 | 237 | 0.0 | 3.0 | 0.00 | 0.00 | 0.00 | 58 | 1015.8 |
| 20260904160624 | 92 | 254 | 0.0 | 3.0 | 0.00 | 0.00 | 0.00 | 57 | 1016.1 |
| 20260904160119 | 92 | 247 | 3.0 | 6.0 | 0.00 | 0.00 | 0.00 | 56 | 1016.2 |
| 20260904155614 | 92 | 201 | 2.0 | 3.0 | 0.00 | 0.00 | 0.00 | 58 | 1016.3 |
| 20260904155108 | 92 | 178 | 4.0 | 6.0 | 0.00 | 0.00 | 0.00 | 58 | 1016.3 |
| 20260904154601 | 92 | 287 | 0.0 | 4.0 | 0.00 | 0.00 | 0.00 | 58 | 1016.2 |
| 20260904154056 | 92 | 247 | 2.0 | 5.0 | 0.00 | 0.00 | 0.00 | 58 | 1016.3 |
| 20260904153555 | 91 | 221 | 2.0 | 4.0 | 0.00 | 0.00 | 0.00 | 59 | 1016.2 |
| 20260904153053 | 91 | 161 | 3.0 | 4.0 | 0.00 | 0.00 | 0.00 | 59 | 1016.2 |
| 20260904152548 | 91 | 111 | 2.0 | 3.0 | 0.00 | 0.00 | 0.00 | 61 | 1016.3 |
| 20260904152043 | 91 | 122 | 3.0 | 4.0 | 0.00 | 0.00 | 0.00 | 60 | 1016.1 |
| 20260904151538 | 91 | 236 | 0.0 | 1.0 | 0.00 | 0.00 | 0.00 | 63 | 1016.2 |
| 20260904151037 | 91 | 250 | 0.0 | 3.0 | 0.00 | 0.00 | 0.00 | 61 | 1016.0 |
| 20260904150532 | 91 | 260 | 0.0 | 2.0 | 0.00 | 0.00 | 0.00 | 63 | 1016.2 |
| 20260904150027 | 90 | 160 | 0.0 | 2.0 | 0.00 | 0.00 | 0.00 | 63 | 1016.1 |
| 20260904145527 | 90 | 12 | 0.0 | 2.0 | 0.00 | 0.00 | 0.00 | 64 | 1016.3 |
| 20260904145022 | 90 | 187 | 1.0 | 4.0 | 0.00 | 0.00 | 0.00 | 65 | 1016.2 |
| 20260904144518 | 89 | 231 | 1.0 | 4.0 | 0.00 | 0.00 | 0.00 | 64 | 1016.1 |
| 20260904144014 | 89 | 210 | 1.0 | 3.0 | 0.00 | 0.00 | 0.00 | 64 | 1015.9 |
| 20260904143509 | 89 | 184 | 0.0 | 7.0 | 0.00 | 0.00 | 0.00 | 64 | 1016.1 |
| 20260904143006 | 89 | 264 | 4.0 | 5.0 | 0.00 | 0.00 | 0.00 | 64 | 1016.1 |
| 20260904142502 | 89 | 169 | 1.0 | 3.0 | 0.00 | 0.00 | 0.00 | 63 | 1016.2 |
| 20260904142002 | 89 | 151 | 2.0 | 3.0 | 0.00 | 0.00 | 0.00 | 66 | 1016.1 |
| 20260904141456 | 89 | 228 | 1.0 | 3.0 | 0.00 | 0.00 | 0.00 | 67 | 1015.9 |
| 20260904140953 | 88 | 119 | 0.0 | 1.0 | 0.00 | 0.00 | 0.00 | 68 | 1016.1 |
| 20260904140452 | 88 | 109 | 0.0 | 3.0 | 0.00 | 0.00 | 0.00 | 69 | 1016.1 |
| 20260904135951 | 87 | 166 | 2.0 | 2.0 | 0.00 | 0.00 | 0.00 | 70 | 1016.3 |
| 20260904135446 | 86 | 163 | 0.0 | 2.0 | 0.00 | 0.00 | 0.00 | 72 | 1016.4 |
| 20260904134943 | 85 | 230 | 2.0 | 3.0 | 0.00 | 0.00 | 0.00 | 74 | 1016.1 |
| 20260904134442 | 84 | 247 | 1.0 | 3.0 | 0.00 | 0.00 | 0.00 | 74 | 1016.2 |
| 20260904133937 | 84 | 232 | 2.0 | 3.0 | 0.00 | 0.00 | 0.00 | 76 | 1016.1 |
| 20260904133432 | 84 | 243 | 3.0 | 3.0 | 0.00 | 0.00 | 0.00 | 78 | 1016.0 |
| 20260904132928 | 83 | 262 | 2.0 | 2.0 | 0.00 | 0.00 | 0.00 | 78 | 1015.7 |
| 20260904132423 | 83 | 146 | 2.0 | 2.0 | 0.00 | 0.00 | 0.00 | 79 | 1015.6 |
| 20260904131922 | 82 | 206 | 0.0 | 1.0 | 0.00 | 0.00 | 0.00 | 80 | 1015.9 |
| 20260904131417 | 82 | 163 | 1.0 | 2.0 | 0.00 | 0.00 | 0.00 | 80 | 1016.1 |
| 20260904130913 | 81 | 167 | 1.0 | 4.0 | 0.00 | 0.00 | 0.00 | 82 | 1015.9 |
| 20260904130412 | 81 | 165 | 0.0 | 2.0 | 0.00 | 0.00 | 0.00 | 83 | 1015.9 |
| 20260904125907 | 80 | 147 | 2.0 | 3.0 | 0.00 | 0.00 | 0.00 | 84 | 1016.0 |
| 20260904125404 | 80 | 197 | 0.0 | 1.0 | 0.00 | 0.00 | 0.00 | 85 | 1015.7 |
| 20260904124903 | 80 | 140 | 0.0 | 2.0 | 0.00 | 0.00 | 0.00 | 85 | 1015.8 |
| 20260904124359 | 79 | 187 | 0.0 | 2.0 | 0.00 | 0.00 | 0.00 | 87 | 1015.8 |
| 20260904123854 | 79 | 155 | 1.0 | 2.0 | 0.00 | 0.00 | 0.00 | 88 | 1016.2 |
| 20260904123349 | 78 | 60 | 0.0 | 3.0 | 0.00 | 0.00 | 0.00 | 90 | 1015.9 |
| 20260904122845 | 78 | 154 | 0.0 | 1.0 | 0.00 | 0.00 | 0.00 | 91 | 1015.6 |
| 20260904122344 | 78 | 286 | 0.0 | 2.0 | 0.00 | 0.00 | 0.00 | 91 | 1015.8 |
| 20260904121839 | 77 | 68 | 0.0 | 2.0 | 0.00 | 0.00 | 0.00 | 91 | 1016.2 |
| 20260904121336 | 77 | 159 | 0.0 | 1.0 | 0.00 | 0.00 | 0.00 | 92 | 1016.3 |
| 20260904120832 | 76 | 189 | 0.0 | 3.0 | 0.00 | 0.00 | 0.00 | 95 | 1016.2 |
| 20260904120327 | 75 | 244 | 0.0 | 1.0 | 0.00 | 0.00 | 0.00 | 96 | 1016.2 |
| 20260904115822 | 75 | 154 | 0.0 | 0.0 | 0.00 | 0.00 | 0.00 | 97 | 1016.0 |
| 20260904115317 | 75 | 175 | 0.0 | 1.0 | 0.00 | 0.00 | 0.00 | 97 | 1016.0 |
| 20260904114818 | 75 | 110 | 0.0 | 2.0 | 0.00 | 0.00 | 0.00 | 97 | 1015.8 |
| 20260904114312 | 75 | 175 | 1.0 | 1.0 | 0.00 | 0.00 | 0.00 | 97 | 1015.9 |
| 20260904113807 | 74 | 67 | 0.0 | 0.0 | 0.00 | 0.00 | 0.00 | 98 | 1016.0 |
| 20260904113306 | 74 | 272 | 0.0 | 0.0 | 0.00 | 0.00 | 0.00 | 98 | 1015.6 |
| 20260904112801 | 74 | 154 | 0.0 | 0.0 | 0.00 | 0.00 | 0.00 | 98 | 1015.9 |
| 20260904112257 | 74 | 119 | 0.0 | 2.0 | 0.00 | 0.00 | 0.00 | 98 | 1016.1 |
| 20260904111752 | 74 | 242 | 0.0 | 0.0 | 0.00 | 0.00 | 0.00 | 98 | 1015.9 |
| 20260904111248 | 73 | 147 | 0.0 | 1.0 | 0.00 | 0.00 | 0.00 | 98 | 1016.0 |
| 20260904110744 | 73 | 24 | 0.0 | 1.0 | 0.00 | 0.00 | 0.00 | 98 | 1015.9 |
| 20260904110243 | 73 | 72 | 1.0 | 2.0 | 0.00 | 0.00 | 0.00 | 97 | 1015.9 |
| 20260904105738 | 73 | 147 | 0.0 | 1.0 | 0.00 | 0.00 | 0.00 | 97 | 1016.0 |
| 20260904105232 | 73 | 79 | 1.0 | 2.0 | 0.00 | 0.00 | 0.00 | 97 | 1015.9 |
| 20260904104728 | 73 | 128 | 2.0 | 2.0 | 0.00 | 0.00 | 0.00 | 97 | 1015.8 |
| 20260904104223 | 73 | 184 | 1.0 | 2.0 | 0.00 | 0.00 | 0.00 | 97 | 1015.7 |
| 20260904103720 | 73 | 151 | 1.0 | 2.0 | 0.00 | 0.00 | 0.00 | 97 | 1015.8 |
| 20260904103215 | 74 | 153 | 1.0 | 2.0 | 0.00 | 0.00 | 0.00 | 97 | 1015.7 |
| 20260904102711 | 74 | 161 | 1.0 | 2.0 | 0.00 | 0.00 | 0.00 | 97 | 1016.0 |
| 20260904102206 | 74 | 173 | 1.0 | 2.0 | 0.00 | 0.00 | 0.00 | 97 | 1015.7 |
| 20260904101702 | 74 | 153 | 0.0 | 2.0 | 0.00 | 0.00 | 0.00 | 97 | 1015.7 |
| 20260904101158 | 74 | 149 | 0.0 | 1.0 | 0.00 | 0.00 | 0.00 | 97 | 1015.7 |
| 20260904100654 | 74 | 172 | 0.0 | 0.0 | 0.00 | 0.00 | 0.00 | 96 | 1015.8 |
| 20260904100149 | 74 | 179 | 1.0 | 2.0 | 0.00 | 0.00 | 0.00 | 96 | 1015.7 |
| 20260904095649 | 74 | 155 | 1.0 | 1.0 | 0.00 | 0.00 | 0.00 | 96 | 1015.8 |
| 20260904095149 | 74 | 143 | 0.0 | 0.0 | 0.00 | 0.00 | 0.00 | 96 | 1015.9 |
| 20260904094644 | 74 | 143 | 0.0 | 0.0 | 0.00 | 0.00 | 0.00 | 96 | 1015.7 |
| 20260904094139 | 74 | 143 | 0.0 | 1.0 | 0.00 | 0.00 | 0.00 | 96 | 1015.8 |
| 20260904093636 | 74 | 153 | 1.0 | 2.0 | 0.00 | 0.00 | 0.00 | 96 | 1015.8 |
| 20260904093135 | 75 | 158 | 1.0 | 2.0 | 0.00 | 0.00 | 0.00 | 96 | 1015.9 |
| 20260904092632 | 75 | 148 | 0.0 | 2.0 | 0.00 | 0.00 | 0.00 | 95 | 1016.0 |
| 20260904092127 | 75 | 142 | 1.0 | 1.0 | 0.00 | 0.00 | 0.00 | 95 | 1016.0 |
| 20260904091623 | 75 | 154 | 0.0 | 1.0 | 0.00 | 0.00 | 0.00 | 95 | 1016.0 |
| 20260904091123 | 75 | 130 | 2.0 | 2.0 | 0.00 | 0.00 | 0.00 | 95 | 1016.1 |
| 20260904090618 | 75 | 146 | 0.0 | 1.0 | 0.00 | 0.00 | 0.00 | 94 | 1016.0 |
| 20260904090114 | 75 | 149 | 1.0 | 2.0 | 0.00 | 0.00 | 0.00 | 94 | 1016.0 |
| 20260904085609 | 75 | 176 | 0.0 | 2.0 | 0.00 | 0.00 | 0.00 | 94 | 1016.0 |
| 20260904085108 | 76 | 209 | 0.0 | 2.0 | 0.00 | 0.00 | 0.00 | 94 | 1016.2 |
| 20260904084604 | 76 | 227 | 1.0 | 1.0 | 0.00 | 0.00 | 0.00 | 94 | 1016.1 |
| 20260904084100 | 76 | 242 | 1.0 | 1.0 | 0.00 | 0.00 | 0.00 | 93 | 1016.1 |
| 20260904083556 | 76 | 159 | 0.0 | 1.0 | 0.00 | 0.00 | 0.00 | 93 | 1015.9 |
| 20260904083052 | 76 | 159 | 2.0 | 2.0 | 0.00 | 0.00 | 0.00 | 93 | 1015.8 |
| 20260904082547 | 76 | 148 | 0.0 | 1.0 | 0.00 | 0.00 | 0.00 | 93 | 1015.8 |
| 20260904082042 | 76 | 159 | 0.0 | 0.0 | 0.00 | 0.00 | 0.00 | 93 | 1015.9 |
| 20260904081537 | 76 | 153 | 0.0 | 2.0 | 0.00 | 0.00 | 0.00 | 92 | 1015.7 |
| 20260904081032 | 77 | 85 | 0.0 | 0.0 | 0.00 | 0.00 | 0.00 | 92 | 1015.4 |
| 20260904080528 | 77 | 121 | 2.0 | 2.0 | 0.00 | 0.00 | 0.00 | 91 | 1015.4 |
| 20260904080024 | 77 | 247 | 1.0 | 1.0 | 0.00 | 0.00 | 0.00 | 91 | 1015.6 |
| 20260904075520 | 77 | 92 | 0.0 | 0.0 | 0.00 | 0.00 | 0.00 | 91 | 1015.9 |
| 20260904075015 | 77 | 143 | 1.0 | 2.0 | 0.00 | 0.00 | 0.00 | 89 | 1015.7 |
| 20260904074514 | 77 | 217 | 0.0 | 1.0 | 0.00 | 0.00 | 0.00 | 89 | 1015.6 |
| 20260904074009 | 77 | 186 | 0.0 | 1.0 | 0.00 | 0.00 | 0.00 | 89 | 1015.7 |
| 20260904073504 | 77 | 193 | 2.0 | 3.0 | 0.00 | 0.00 | 0.00 | 90 | 1015.5 |
| 20260904073001 | 77 | 5 | 2.0 | 2.0 | 0.00 | 0.00 | 0.00 | 91 | 1015.3 |
| 20260904072456 | 78 | 131 | 1.0 | 2.0 | 0.00 | 0.00 | 0.00 | 90 | 1015.4 |
| 20260904071956 | 78 | 163 | 0.0 | 1.0 | 0.00 | 0.00 | 0.00 | 90 | 1015.4 |
| 20260904071451 | 78 | 132 | 0.0 | 1.0 | 0.00 | 0.00 | 0.00 | 88 | 1015.3 |
| 20260904070946 | 78 | 143 | 0.0 | 2.0 | 0.00 | 0.00 | 0.00 | 85 | 1015.4 |
| 20260904070444 | 79 | 159 | 0.0 | 0.0 | 0.00 | 0.00 | 0.00 | 86 | 1015.4 |
| 20260904065939 | 79 | 180 | 1.0 | 2.0 | 0.00 | 0.00 | 0.00 | 84 | 1015.3 |
| 20260904065435 | 79 | 158 | 2.0 | 2.0 | 0.00 | 0.00 | 0.00 | 83 | 1015.2 |
| 20260904064930 | 80 | 184 | 0.0 | 0.0 | 0.00 | 0.00 | 0.00 | 83 | 1015.5 |
| 20260904064427 | 80 | 200 | 2.0 | 2.0 | 0.00 | 0.00 | 0.00 | 82 | 1015.5 |
| 20260904063921 | 81 | 119 | 0.0 | 1.0 | 0.00 | 0.00 | 0.00 | 83 | 1015.5 |
| 20260904063418 | 81 | 145 | 0.0 | 2.0 | 0.00 | 0.00 | 0.00 | 78 | 1015.5 |
| 20260904062913 | 80 | 259 | 2.0 | 4.0 | 0.00 | 0.00 | 0.00 | 84 | 1015.7 |
| 20260904062409 | 80 | 147 | 0.0 | 1.0 | 0.00 | 0.00 | 0.00 | 84 | 1015.5 |
| 20260904061905 | 81 | 172 | 0.0 | 1.0 | 0.00 | 0.00 | 0.00 | 84 | 1015.8 |
| 20260904061401 | 82 | 247 | 1.0 | 5.0 | 0.00 | 0.00 | 0.00 | 81 | 1016.0 |
| 20260904060857 | 81 | 165 | 0.0 | 3.0 | 0.00 | 0.00 | 0.00 | 83 | 1016.2 |
| 20260904060352 | 81 | 252 | 1.0 | 5.0 | 0.00 | 0.00 | 0.00 | 84 | 1016.4 |
| 20260904055848 | 81 | 225 | 2.0 | 4.0 | 0.00 | 0.00 | 0.00 | 85 | 1016.2 |
| 20260904055342 | 81 | 239 | 0.0 | 3.0 | 0.00 | 0.00 | 0.00 | 85 | 1016.3 |
| 20260904054838 | 80 | 158 | 4.0 | 6.0 | 0.00 | 0.00 | 0.00 | 87 | 1016.8 |
| 20260904054334 | 79 | 225 | 0.0 | 1.0 | 0.00 | 0.00 | 0.00 | 87 | 1015.4 |
| 20260904053829 | 79 | 132 | 0.0 | 0.0 | 0.00 | 0.00 | 0.00 | 88 | 1015.9 |
| 20260904053329 | 79 | 184 | 0.0 | 2.0 | 0.00 | 0.00 | 0.00 | 89 | 1015.5 |
| 20260904052825 | 79 | 80 | 0.0 | 0.0 | 0.00 | 0.00 | 0.00 | 91 | 1015.8 |
| 20260904052321 | 79 | 147 | 0.0 | 0.0 | 0.00 | 0.00 | 0.00 | 90 | 1015.6 |
| 20260904051817 | 79 | 154 | 0.0 | 0.0 | 0.00 | 0.00 | 0.00 | 90 | 1015.7 |
| 20260904051313 | 79 | 172 | 0.0 | 1.0 | 0.00 | 0.00 | 0.00 | 89 | 1015.8 |
| 20260904050807 | 79 | 143 | 0.0 | 1.0 | 0.00 | 0.00 | 0.00 | 88 | 1015.6 |
| 20260904050305 | 79 | 140 | 0.0 | 1.0 | 0.00 | 0.00 | 0.00 | 89 | 1015.9 |
| 20260904045804 | 79 | 134 | 0.0 | 1.0 | 0.00 | 0.00 | 0.00 | 91 | 1015.9 |
| 20260904045259 | 79 | 155 | 0.0 | 1.0 | 0.00 | 0.00 | 0.00 | 91 | 1016.1 |
| 20260904044754 | 79 | 173 | 1.0 | 2.0 | 0.00 | 0.00 | 0.00 | 92 | 1016.0 |
| 20260904044251 | 79 | 177 | 1.0 | 2.0 | 0.00 | 0.00 | 0.00 | 93 | 1015.9 |
| 20260904043746 | 79 | 172 | 0.0 | 1.0 | 0.00 | 0.00 | 0.00 | 93 | 1015.9 |
| 20260904043243 | 79 | 194 | 0.0 | 1.0 | 0.00 | 0.00 | 0.00 | 93 | 1015.9 |
| 20260904042737 | 79 | 184 | 0.0 | 1.0 | 0.00 | 0.00 | 0.00 | 93 | 1015.6 |
| 20260904042234 | 79 | 153 | 1.0 | 2.0 | 0.00 | 0.00 | 0.00 | 94 | 1015.8 |
| 20260904041733 | 79 | 161 | 0.0 | 1.0 | 0.00 | 0.00 | 0.00 | 94 | 1015.7 |
| 20260904041230 | 79 | 172 | 0.0 | 1.0 | 0.00 | 0.00 | 0.00 | 94 | 1016.0 |
| 20260904040725 | 79 | 165 | 1.0 | 1.0 | 0.00 | 0.00 | 0.00 | 93 | 1016.0 |
| 20260904040221 | 80 | 165 | 1.0 | 1.0 | 0.00 | 0.00 | 0.00 | 93 | 1015.9 |
| 20260904035717 | 80 | 163 | 1.0 | 2.0 | 0.00 | 0.00 | 0.00 | 93 | 1015.9 |
| 20260904035212 | 79 | 270 | 0.0 | 2.0 | 0.00 | 0.00 | 0.00 | 94 | 1016.0 |
| 20260904034710 | 79 | 192 | 0.0 | 1.0 | 0.00 | 0.00 | 0.00 | 94 | 1016.1 |
| 20260904034207 | 79 | 147 | 0.0 | 0.0 | 0.00 | 0.00 | 0.00 | 94 | 1016.0 |
| 20260904033703 | 79 | 165 | 0.0 | 1.0 | 0.00 | 0.00 | 0.00 | 94 | 1016.2 |
| 20260904033159 | 79 | 160 | 0.0 | 1.0 | 0.00 | 0.00 | 0.00 | 93 | 1016.3 |
| 20260904032655 | 79 | 154 | 0.0 | 0.0 | 0.00 | 0.00 | 0.00 | 93 | 1016.5 |
| 20260904032154 | 79 | 158 | 1.0 | 1.0 | 0.00 | 0.00 | 0.00 | 93 | 1016.5 |
| 20260904031648 | 79 | 156 | 0.0 | 0.0 | 0.00 | 0.00 | 0.00 | 93 | 1016.5 |
| 20260904031143 | 79 | 156 | 0.0 | 1.0 | 0.00 | 0.00 | 0.00 | 93 | 1016.4 |
| 20260904030639 | 80 | 133 | 1.0 | 1.0 | 0.00 | 0.00 | 0.00 | 93 | 1016.2 |
| 20260904030134 | 80 | 177 | 0.0 | 1.0 | 0.00 | 0.00 | 0.00 | 92 | 1016.3 |
| 20260904025630 | 80 | 165 | 0.0 | 0.0 | 0.00 | 0.00 | 0.00 | 92 | 1016.2 |
| 20260904025125 | 80 | 168 | 0.0 | 1.0 | 0.00 | 0.00 | 0.00 | 92 | 1016.4 |
| 20260904024620 | 80 | 232 | 0.0 | 1.0 | 0.00 | 0.00 | 0.00 | 92 | 1016.1 |
| 20260904024116 | 80 | 225 | 0.0 | 1.0 | 0.00 | 0.00 | 0.00 | 93 | 1016.3 |
| 20260904023612 | 80 | 236 | 1.0 | 1.0 | 0.00 | 0.00 | 0.00 | 93 | 1016.1 |
| 20260904023107 | 80 | 164 | 0.0 | 1.0 | 0.00 | 0.00 | 0.00 | 92 | 1016.0 |
| 20260904022602 | 80 | 172 | 0.0 | 1.0 | 0.00 | 0.00 | 0.00 | 92 | 1016.0 |
| 20260904022059 | 80 | 147 | 0.0 | 0.0 | 0.00 | 0.00 | 0.00 | 92 | 1016.1 |
| 20260904021554 | 80 | 203 | 0.0 | 1.0 | 0.00 | 0.00 | 0.00 | 92 | 1016.0 |
| 20260904021049 | 80 | 126 | 1.0 | 1.0 | 0.00 | 0.00 | 0.00 | 93 | 1016.0 |
| 20260904020544 | 80 | 160 | 0.0 | 2.0 | 0.00 | 0.00 | 0.00 | 93 | 1016.0 |